EW5171 Weather Reports


time (UTC)temp
C
wind
direction
speed
KPH
gust
KPH
rain 1hr
cm
rain 24hr
cm
rain mn
cm
humidity
%
barometer
mb
20260906103503 17 303 4.8 16.1 0.00 0.05 0.03 68 1021.8
20260906103003 17 149 1.6 17.7 0.00 0.05 0.03 68 1021.7
20260906102502 17 198 3.2 17.7 0.00 0.05 0.03 67 1021.7
20260906102002 17 183 4.8 17.7 0.00 0.05 0.03 70 1021.6
20260906101501 17 221 4.8 17.7 0.00 0.05 0.03 69 1021.5
20260906101001 17 223 4.8 22.5 0.00 0.05 0.03 68 1021.5
20260906100602 17 300 4.8 27.4 0.00 0.05 0.03 67 1021.3
20260906100100 17 239 6.4 27.4 0.00 0.05 0.03 68 1021.3
20260906095559 17 288 8.0 17.7 0.00 0.05 0.03 68 1021.2
20260906095058 17 214 4.8 16.1 0.00 0.05 0.03 68 1021.0
20260906094557 17 341 6.4 14.5 0.00 0.05 0.03 69 1021.0
20260906094055 17 296 6.4 14.5 0.00 0.05 0.03 69 1020.9
20260906093555 17 170 6.4 17.7 0.00 0.05 0.03 70 1020.9
20260906093053 17 209 6.4 17.7 0.00 0.05 0.03 70 1021.0
20260906092552 17 289 3.2 17.7 0.00 0.05 0.03 70 1020.8
20260906092052 17 30 6.4 20.9 0.00 0.05 0.03 69 1020.7
20260906091551 17 68 6.4 22.5 0.00 0.05 0.03 70 1020.9
20260906091050 17 289 4.8 22.5 0.00 0.05 0.03 71 1020.8
20260906090548 17 159 6.4 17.7 0.00 0.05 0.03 73 1020.6
20260906090048 16 283 8.0 16.1 0.00 0.05 0.03 72 1020.6
20260906085551 16 271 4.8 16.1 0.00 0.05 0.03 73 1020.6
20260906085047 16 272 6.4 19.3 0.00 0.05 0.03 73 1020.5
20260906084546 16 290 3.2 22.5 0.00 0.05 0.03 74 1020.5
20260906084045 16 123 6.4 22.5 0.00 0.05 0.03 75 1020.5
20260906083543 16 268 4.8 22.5 0.00 0.05 0.03 76 1020.4
20260906083042 16 263 6.4 22.5 0.00 0.05 0.03 76 1020.4
20260906082541 16 266 4.8 22.5 0.00 0.05 0.03 77 1020.2
20260906082040 16 289 3.2 17.7 0.00 0.05 0.03 77 1020.1
20260906081542 16 298 4.8 17.7 0.00 0.05 0.03 77 1020.1
20260906081040 16 184 4.8 22.5 0.00 0.05 0.03 78 1020.1
20260906080538 16 161 4.8 22.5 0.00 0.05 0.03 78 1020.1
20260906080037 16 277 6.4 22.5 0.00 0.05 0.03 78 1019.9
20260906075535 15 179 4.8 16.1 0.00 0.05 0.03 79 1020.0
20260906075036 15 15 4.8 16.1 0.00 0.05 0.03 79 1020.0
20260906074534 15 275 3.2 17.7 0.00 0.05 0.03 80 1020.0
20260906074032 15 179 3.2 16.1 0.00 0.05 0.03 81 1019.9
20260906073536 15 153 1.6 29.0 0.00 0.05 0.03 81 1019.9
20260906073030 15 273 8.0 29.0 0.00 0.05 0.03 81 1019.8
20260906072529 15 318 1.6 16.1 0.00 0.05 0.03 82 1019.7
20260906072029 15 26 4.8 20.9 0.00 0.05 0.03 81 1019.7
20260906071531 15 60 4.8 20.9 0.00 0.05 0.03 82 1019.5
20260906071025 14 253 6.4 19.3 0.00 0.05 0.03 83 1019.5
20260906070527 14 288 9.7 24.1 0.00 0.05 0.03 83 1019.4
20260906070023 14 262 6.4 24.1 0.00 0.05 0.03 84 1019.4
20260906065522 14 246 3.2 17.7 0.00 0.05 0.03 84 1019.4
20260906065021 14 160 4.8 20.9 0.00 0.05 0.03 85 1019.3
20260906064526 13 277 3.2 20.9 0.00 0.05 0.03 86 1019.3
20260906064019 13 262 4.8 22.5 0.00 0.05 0.03 86 1019.3
20260906063517 13 252 4.8 22.5 0.00 0.05 0.03 87 1019.2
20260906063016 13 198 4.8 19.3 0.00 0.05 0.03 87 1019.2
20260906062515 13 163 3.2 11.3 0.00 0.05 0.03 88 1019.1
20260906062014 13 190 3.2 11.3 0.00 0.05 0.03 88 1019.1
20260906061514 13 310 3.2 12.9 0.00 0.05 0.03 88 1019.1
20260906061014 13 331 4.8 12.9 0.00 0.05 0.03 89 1019.1
20260906060513 12 132 3.2 24.1 0.00 0.05 0.03 89 1019.1
20260906060012 12 269 4.8 24.1 0.00 0.05 0.03 89 1019.0
20260906055512 12 328 4.8 14.5 0.00 0.05 0.03 90 1019.1
20260906055013 12 162 3.2 12.9 0.00 0.05 0.03 90 1019.0
20260906054510 12 242 3.2 11.3 0.00 0.05 0.03 90 1018.9
20260906054008 12 217 4.8 16.1 0.00 0.05 0.03 90 1018.8
20260906053511 12 232 3.2 16.1 0.00 0.05 0.03 90 1018.7
20260906053006 12 205 4.8 19.3 0.00 0.05 0.03 91 1018.6
20260906052505 12 286 1.6 19.3 0.00 0.05 0.03 91 1018.5
20260906052005 12 212 4.8 12.9 0.00 0.05 0.03 91 1018.5
20260906051504 12 176 1.6 12.9 0.00 0.05 0.03 91 1018.6
20260906051104 12 192 1.6 12.9 0.00 0.05 0.03 91 1018.5
20260906050501 12 210 3.2 12.9 0.00 0.05 0.03 91 1018.4
20260906050003 12 166 1.6 14.5 0.00 0.05 0.03 91 1018.3
20260906045600 12 256 4.8 14.5 0.00 0.05 0.03 91 1018.3
20260906045059 12 288 3.2 19.3 0.00 0.05 0.03 91 1018.3
20260906044559 12 281 4.8 19.3 0.00 0.05 0.03 91 1018.2
20260906044102 12 199 1.6 14.5 0.00 0.05 0.03 91 1018.1
20260906043557 12 232 4.8 14.5 0.00 0.05 0.03 91 1018.2
20260906043102 12 242 4.8 12.9 0.00 0.05 0.03 91 1018.0
20260906042556 12 142 3.2 14.5 0.00 0.05 0.03 91 1018.1
20260906042055 12 299 3.2 14.5 0.00 0.05 0.03 91 1018.0
20260906041555 12 207 3.2 16.1 0.00 0.05 0.03 91 1017.9
20260906041054 12 301 4.8 16.1 0.00 0.05 0.03 91 1017.8
20260906040553 12 281 4.8 14.5 0.00 0.05 0.03 91 1017.9
20260906040053 12 288 3.2 14.5 0.00 0.05 0.03 90 1017.8
20260906035552 12 27 6.4 20.9 0.00 0.05 0.03 90 1017.8
20260906035052 12 286 3.2 20.9 0.00 0.05 0.03 90 1017.6
20260906034558 12 231 4.8 12.9 0.00 0.05 0.03 90 1017.5
20260906034050 12 173 3.2 12.9 0.00 0.05 0.03 90 1017.5
20260906033550 12 280 1.6 12.9 0.00 0.05 0.03 90 1017.4
20260906033048 12 272 3.2 17.7 0.00 0.05 0.03 90 1017.3
20260906032547 12 266 1.6 17.7 0.00 0.05 0.03 90 1017.3
20260906032047 12 194 3.2 11.3 0.00 0.05 0.03 90 1017.2
20260906031608 12 277 1.6 14.5 0.00 0.05 0.03 90 1017.1
20260906031046 12 281 3.2 16.1 0.00 0.05 0.03 90 1017.1
20260906030545 12 206 3.2 17.7 0.00 0.05 0.03 90 1017.0
20260906030044 12 330 3.2 9.7 0.00 0.05 0.03 89 1016.9
20260906025543 12 157 1.6 9.7 0.00 0.05 0.03 89 1016.9
20260906025043 12 182 3.2 9.7 0.00 0.05 0.03 89 1016.9
20260906024549 12 272 3.2 9.7 0.00 0.05 0.03 89 1016.9
20260906024041 12 146 1.6 12.9 0.00 0.05 0.03 89 1016.8
20260906023541 12 321 4.8 12.9 0.00 0.05 0.03 88 1016.8
20260906023054 12 192 3.2 12.9 0.00 0.05 0.03 88 1016.8
20260906022539 12 163 3.2 12.9 0.00 0.05 0.03 88 1016.8
20260906022041 12 261 4.8 14.5 0.00 0.05 0.03 88 1016.8
20260906021539 12 18 3.2 17.7 0.00 0.05 0.03 88 1016.7
20260906021040 12 276 1.6 14.5 0.00 0.05 0.03 88 1016.7
20260906020538 12 277 3.2 14.5 0.00 0.05 0.03 89 1016.6
20260906020048 12 280 1.6 12.9 0.00 0.05 0.03 88 1016.6
20260906015536 12 224 3.2 14.5 0.00 0.05 0.03 88 1016.5
20260906015036 12 275 3.2 14.5 0.00 0.05 0.03 88 1016.5
20260906014535 12 211 4.8 11.3 0.00 0.05 0.03 88 1016.5
20260906014035 12 209 3.2 14.5 0.00 0.05 0.03 88 1016.4
20260906013534 12 290 1.6 14.5 0.00 0.05 0.03 88 1016.4
20260906013034 12 215 4.8 14.5 0.00 0.05 0.03 88 1016.4
20260906012532 12 289 4.8 14.5 0.00 0.05 0.03 88 1016.3
20260906012032 12 142 3.2 12.9 0.00 0.05 0.03 88 1016.3
20260906011531 12 163 3.2 16.1 0.00 0.05 0.03 88 1016.3
20260906011032 12 221 3.2 17.7 0.00 0.05 0.03 88 1016.2
20260906010530 12 234 4.8 14.5 0.00 0.05 0.03 88 1016.1
20260906010031 12 163 3.2 19.3 0.00 0.05 0.03 88 1016.1
20260906005529 12 5 4.8 19.3 0.00 0.05 0.03 88 1016.0
20260906005029 12 89 3.2 12.9 0.00 0.05 0.03 88 1016.0
20260906004530 12 188 4.8 12.9 0.00 0.05 0.03 88 1016.0
20260906004027 12 138 1.6 12.9 0.00 0.05 0.03 88 1016.0
20260906003527 12 100 3.2 14.5 0.00 0.05 0.03 88 1015.8
20260906003026 12 161 3.2 14.5 0.00 0.05 0.03 88 1015.7
20260906002527 12 43 3.2 14.5 0.00 0.05 0.03 88 1015.7
20260906002025 12 279 4.8 14.5 0.00 0.05 0.03 88 1015.7
20260906001524 12 188 3.2 16.1 0.00 0.05 0.03 88 1015.6
20260906001025 12 136 1.6 14.5 0.00 0.05 0.03 87 1015.6
20260906000623 12 265 3.2 14.5 0.00 0.05 0.03 87 1015.4
20260906000021 12 284 3.2 14.5 0.00 0.05 0.03 87 1015.3
20260905235519 12 320 4.8 16.1 0.00 0.05 0.03 87 1015.2
20260905235024 12 61 4.8 16.1 0.00 0.05 0.03 87 1015.2
20260905234518 12 302 6.4 17.7 0.00 0.05 0.03 87 1015.2
20260905234017 12 327 4.8 14.5 0.03 0.05 0.03 87 1015.0
20260905233516 12 276 3.2 12.9 0.03 0.05 0.03 87 1015.0
20260905233017 12 296 4.8 14.5 0.03 0.05 0.03 87 1014.8
20260905232514 12 212 3.2 14.5 0.03 0.05 0.03 87 1014.8
20260905232013 13 240 3.2 14.5 0.03 0.05 0.03 86 1014.7
20260905231513 13 233 4.8 19.3 0.03 0.05 0.03 86 1014.6
20260905231012 13 277 8.0 19.3 0.03 0.05 0.03 86 1014.6
20260905230511 13 311 3.2 17.7 0.03 0.05 0.03 86 1014.6
20260905230010 13 209 1.6 14.5 0.03 0.05 0.03 86 1014.5
20260905225510 13 272 4.8 14.5 0.03 0.05 0.03 85 1014.5
20260905225007 13 262 3.2 14.5 0.03 0.05 0.03 85 1014.4
20260905224507 13 312 3.2 19.3 0.03 0.05 0.03 84 1014.3
20260905224008 13 258 4.8 19.3 0.00 0.03 0.00 84 1014.2
20260905223508 13 281 3.2 27.4 0.00 0.03 0.00 84 1014.1
20260905223003 13 279 6.4 27.4 0.00 0.03 0.00 84 1014.1
20260905222503 13 155 4.8 19.3 0.00 0.03 0.00 83 1014.1
20260905222002 13 120 3.2 19.3 0.00 0.03 0.00 83 1014.0
20260905221501 13 298 1.6 14.5 0.00 0.03 0.00 83 1013.9
20260905221101 13 231 6.4 16.1 0.00 0.03 0.00 83 1013.7
20260905220559 13 182 3.2 17.7 0.00 0.03 0.00 83 1013.7
20260905220059 13 13 3.2 17.7 0.00 0.03 0.00 82 1013.7
20260905215557 13 267 8.0 22.5 0.00 0.03 0.03 82 1013.6
20260905215058 13 257 6.4 22.5 0.00 0.03 0.03 82 1013.5
20260905214604 13 180 6.4 19.3 0.00 0.03 0.03 82 1013.4
20260905214057 14 296 6.4 20.9 0.00 0.03 0.03 81 1013.4
20260905213556 14 197 6.4 20.9 0.00 0.03 0.03 81 1013.3
20260905213055 14 290 3.2 14.5 0.00 0.03 0.03 81 1013.3
20260905212557 14 179 6.4 19.3 0.00 0.03 0.03 81 1013.1
20260905212053 14 238 3.2 19.3 0.00 0.03 0.03 81 1013.2
20260905211554 14 260 6.4 17.7 0.00 0.03 0.03 81 1012.9
20260905211054 14 275 6.4 22.5 0.00 0.03 0.03 81 1013.0
20260905210552 14 277 3.2 22.5 0.00 0.03 0.03 81 1012.8
20260905210104 14 267 6.4 19.3 0.00 0.03 0.03 81 1012.8
20260905205552 14 211 6.4 17.7 0.00 0.03 0.03 81 1012.8
20260905205052 14 185 4.8 20.9 0.00 0.03 0.03 81 1012.8
20260905204551 14 186 6.4 25.7 0.00 0.03 0.03 81 1012.7
20260905204051 14 276 6.4 17.7 0.00 0.03 0.03 81 1012.7
20260905203551 14 183 4.8 20.9 0.00 0.03 0.03 81 1012.6
20260905203050 14 43 8.0 22.5 0.00 0.03 0.03 81 1012.4
20260905202549 14 202 6.4 20.9 0.00 0.03 0.03 81 1012.4
20260905202048 13 306 6.4 17.7 0.00 0.03 0.03 82 1012.3
20260905201548 13 190 6.4 17.7 0.00 0.03 0.03 82 1012.3
20260905201047 13 308 8.0 19.3 0.00 0.03 0.03 82 1012.3
20260905200546 13 242 6.4 17.7 0.00 0.03 0.03 83 1012.1
20260905200053 13 275 3.2 14.5 0.00 0.03 0.03 83 1012.0
20260905195550 13 294 4.8 16.1 0.00 0.03 0.03 83 1012.1
20260905195045 13 271 3.2 16.1 0.00 0.03 0.03 82 1012.1
20260905194547 13 202 4.8 20.9 0.00 0.03 0.03 82 1011.8
20260905194044 13 292 4.8 20.9 0.00 0.03 0.03 82 1011.9
20260905193543 13 238 6.4 20.9 0.00 0.03 0.03 82 1011.8
20260905193044 13 168 3.2 17.7 0.00 0.03 0.03 82 1011.8
20260905192542 13 311 4.8 24.1 0.00 0.03 0.03 82 1011.7
20260905192040 13 209 8.0 24.1 0.00 0.03 0.03 82 1011.6
20260905191542 13 198 4.8 16.1 0.00 0.03 0.03 82 1011.4
20260905191040 13 29 6.4 20.9 0.00 0.03 0.03 82 1011.3
20260905190540 14 170 6.4 22.5 0.00 0.03 0.03 82 1011.3
20260905190046 13 306 6.4 22.5 0.00 0.03 0.03 82 1011.2
20260905185543 13 360 6.4 22.5 0.00 0.05 0.03 82 1011.3
20260905185039 14 254 6.4 24.1 0.00 0.05 0.03 82 1011.2
20260905184540 14 55 6.4 17.7 0.00 0.05 0.03 81 1011.1
20260905184041 14 185 8.0 17.7 0.00 0.05 0.03 81 1011.1
20260905183538 14 324 6.4 24.1 0.00 0.05 0.03 80 1011.0
20260905183038 14 190 6.4 29.0 0.00 0.05 0.03 80 1011.0
20260905182536 14 243 6.4 29.0 0.00 0.05 0.03 79 1010.8
20260905182040 14 291 4.8 25.7 0.00 0.05 0.03 79 1010.8
20260905181535 14 261 8.0 25.7 0.00 0.05 0.03 78 1010.7
20260905181034 14 275 6.4 25.7 0.00 0.05 0.03 78 1010.6
20260905180533 14 298 8.0 22.5 0.00 0.05 0.03 78 1010.3
20260905180133 14 182 8.0 22.5 0.00 0.05 0.03 78 1010.2
20260905175532 15 273 8.0 25.7 0.00 0.05 0.03 77 1010.2
20260905175031 15 269 8.0 25.7 0.00 0.05 0.03 77 1010.1
20260905174530 15 242 9.7 22.5 0.00 0.05 0.03 76 1010.0
20260905174030 15 192 6.4 24.1 0.00 0.05 0.03 76 1009.9
20260905173531 15 273 8.0 37.0 0.00 0.05 0.03 76 1009.9
20260905173030 15 300 8.0 37.0 0.00 0.05 0.03 75 1010.0
20260905172529 15 5 8.0 22.5 0.00 0.05 0.03 75 1009.9
20260905172030 15 321 6.4 25.7 0.00 0.05 0.03 75 1009.9
20260905171545 15 281 6.4 25.7 0.00 0.05 0.03 75 1010.0
20260905171028 15 5 6.4 25.7 0.00 0.05 0.03 74 1009.7
20260905170528 15 246 4.8 24.1 0.00 0.05 0.03 74 1009.7
20260905170028 15 205 8.0 25.7 0.00 0.05 0.03 74 1009.6
20260905165528 15 268 6.4 29.0 0.00 0.05 0.03 74 1009.5
20260905165027 15 302 9.7 29.0 0.00 0.05 0.03 75 1009.6
20260905164526 15 259 8.0 27.4 0.00 0.05 0.03 74 1009.4
20260905164025 15 251 8.0 27.4 0.00 0.05 0.03 74 1009.4
20260905163525 15 205 4.8 17.7 0.00 0.05 0.03 73 1009.2
20260905163025 15 225 4.8 30.6 0.00 0.05 0.03 73 1009.2
20260905162523 15 281 6.4 30.6 0.00 0.05 0.03 74 1009.0
20260905162123 15 247 8.0 32.2 0.00 0.05 0.03 73 1009.1
20260905161525 16 331 11.3 32.2 0.00 0.05 0.03 72 1009.0
20260905161025 16 313 6.4 27.4 0.00 0.05 0.03 72 1008.9
20260905160521 16 69 9.7 24.1 0.00 0.05 0.03 71 1008.8
20260905160034 16 239 8.0 22.5 0.00 0.05 0.03 71 1008.9
20260905155524 16 279 6.4 38.6 0.00 0.05 0.03 70 1008.7
20260905155020 16 254 6.4 38.6 0.00 0.05 0.03 70 1008.8
20260905154520 16 190 6.4 30.6 0.00 0.05 0.03 69 1008.5
20260905154021 16 254 11.3 30.6 0.00 0.05 0.03 69 1008.6
20260905153519 16 84 8.0 32.2 0.00 0.05 0.03 69 1008.4
20260905153022 16 284 11.3 32.2 0.00 0.05 0.03 68 1008.4
20260905152517 16 305 4.8 20.9 0.00 0.05 0.03 69 1008.4
20260905152018 16 213 4.8 29.0 0.00 0.05 0.03 68 1008.4
20260905151516 16 336 8.0 24.1 0.00 0.05 0.03 67 1008.3
20260905151016 17 242 9.7 24.1 0.00 0.05 0.03 67 1008.2
20260905150514 17 279 9.7 24.1 0.00 0.05 0.03 68 1008.2
20260905150014 16 300 6.4 22.5 0.00 0.05 0.03 68 1008.2
20260905145519 16 291 9.7 22.5 0.00 0.05 0.03 68 1008.1
20260905145114 17 271 6.4 22.5 0.00 0.05 0.03 70 1008.2
20260905144524 17 280 6.4 25.7 0.00 0.05 0.03 69 1008.0
20260905144018 17 220 6.4 27.4 0.00 0.05 0.03 70 1008.0
20260905143516 17 182 6.4 27.4 0.00 0.05 0.03 69 1008.0
20260905143013 17 217 8.0 32.2 0.00 0.05 0.03 69 1008.0
20260905142514 17 273 9.7 32.2 0.00 0.05 0.03 70 1008.2
20260905142012 17 209 6.4 32.2 0.00 0.05 0.03 70 1008.1
20260905141514 17 297 9.7 32.2 0.00 0.05 0.03 69 1008.0
20260905141011 17 195 8.0 27.4 0.00 0.05 0.03 66 1007.9
20260905140512 18 170 3.2 19.3 0.00 0.05 0.03 67 1007.7
20260905140018 18 105 4.8 19.3 0.00 0.05 0.03 66 1007.7
20260905135509 18 279 9.7 20.9 0.00 0.05 0.03 65 1007.6
20260905135009 18 227 9.7 22.5 0.00 0.05 0.03 65 1007.6
20260905134508 18 329 4.8 27.4 0.00 0.05 0.03 67 1007.5
20260905134008 18 232 6.4 27.4 0.00 0.05 0.03 64 1007.5
20260905133507 18 277 8.0 32.2 0.00 0.05 0.03 65 1007.6
20260905133008 18 301 8.0 32.2 0.00 0.05 0.03 65 1007.3
20260905132504 18 273 9.7 25.7 0.00 0.05 0.03 66 1007.2
20260905132003 18 194 11.3 25.7 0.00 0.05 0.03 66 1007.3
20260905131502 18 180 9.7 25.7 0.00 0.05 0.03 68 1007.3
20260905131002 18 273 9.7 20.9 0.03 0.05 0.03 67 1007.3
20260905130503 18 334 4.8 25.7 0.03 0.05 0.03 69 1007.2
20260905130101 17 300 6.4 25.7 0.03 0.05 0.03 71 1007.2
20260905125602 17 256 3.2 20.9 0.03 0.05 0.03 71 1007.1
20260905125100 17 309 8.0 20.9 0.03 0.05 0.03 72 1007.2
20260905124600 17 289 4.8 24.1 0.03 0.05 0.03 76 1007.1
20260905124058 16 188 3.2 24.1 0.03 0.05 0.03 77 1007.1
20260905123558 16 298 8.0 24.1 0.03 0.05 0.03 78 1007.2
20260905123104 16 292 8.0 24.1 0.03 0.05 0.03 81 1007.3
20260905122557 16 308 4.8 19.3 0.03 0.05 0.03 83 1007.2
20260905122100 16 176 6.4 25.7 0.03 0.05 0.03 79 1007.2
20260905121600 17 227 8.0 25.7 0.03 0.05 0.03 73 1007.2
20260905121100 18 297 6.4 29.0 0.03 0.05 0.03 70 1007.1
20260905120555 17 209 4.8 24.1 0.00 0.05 0.00 71 1006.9
20260905120106 17 190 6.4 24.1 0.00 0.05 0.00 70 1006.8
20260905115554 17 258 4.8 27.4 0.00 0.05 0.00 71 1006.7
20260905115157 17 229 6.4 27.4 0.00 0.05 0.00 71 1006.6
20260905114607 17 293 8.0 25.7 0.00 0.05 0.00 73 1006.6
20260905114054 17 270 8.0 25.7 0.00 0.05 0.00 71 1006.7
20260905113553 17 290 6.4 19.3 0.00 0.05 0.00 72 1006.6
20260905113057 17 305 4.8 24.1 0.00 0.05 0.00 72 1006.6
20260905112550 17 264 6.4 19.3 0.00 0.05 0.00 73 1006.7
20260905112049 17 288 6.4 25.7 0.00 0.05 0.00 75 1006.5
20260905111634 16 227 4.8 25.7 0.00 0.05 0.00 77 1006.6
20260905111047 16 41 8.0 27.4 0.00 0.05 0.00 79 1006.5
20260905110545 16 161 8.0 27.4 0.00 0.05 0.00 79 1006.5
20260905110045 16 140 8.0 19.3 0.00 0.05 0.00 78 1006.4
20260905105546 16 234 6.4 19.3 0.00 0.05 0.00 78 1006.4
20260905105045 16 195 6.4 16.1 0.00 0.05 0.00 78 1006.4
20260905104544 16 198 4.8 16.1 0.00 0.05 0.00 76 1006.2
20260905104043 16 257 4.8 14.5 0.00 0.05 0.00 77 1006.2
20260905103544 16 251 3.2 25.7 0.00 0.05 0.00 77 1006.2